Location: Observatoire
(46.1952°N, 5.3391°E)
Time: 19:54:41
(UTC+01:00)

Tiros 1 - All Passes

Search period start: 18 February 2026 00:00
Search period end: 28 February 2026 00:00
Orbit: 618 x 649 km, 48.4° (Epoch: 17 February)

Date Brightness Start Highest point End Pass type
(mag) Time Alt. Az. Time Alt. Az. Time Alt. Az.
18 Feb - 07:44:26 10° SSE 07:46:25 13° SE 07:48:23 10° ESE daylight
18 Feb - 09:23:05 10° SW 09:27:32 50° SSE 09:31:57 10° ENE daylight
18 Feb - 11:04:47 10° W 11:09:21 73° NNW 11:13:56 10° ENE daylight
18 Feb - 12:46:57 10° WNW 12:51:30 73° N 12:56:04 10° E daylight
18 Feb - 14:28:56 10° WNW 14:33:20 49° SSW 14:37:43 10° SE daylight
18 Feb - 16:12:34 10° WSW 16:14:25 12° SW 16:16:16 10° SSW daylight
19 Feb - 08:03:56 10° SSW 08:07:39 24° SE 08:11:20 10° E daylight
19 Feb - 09:44:30 10° WSW 09:49:06 79° SSE 09:53:41 10° ENE daylight
19 Feb - 11:26:35 10° W 11:31:08 65° N 11:35:41 10° E daylight
19 Feb - 13:08:38 10° WNW 13:13:13 87° SSW 13:17:47 10° ESE daylight
19 Feb - 14:50:51 10° W 14:54:45 28° SW 14:58:39 10° SSE daylight
20 Feb - 08:24:40 10° SW 08:29:02 42° SSE 08:33:21 10° ENE daylight
20 Feb - 10:06:11 10° W 10:10:47 77° NNW 10:15:22 10° ENE daylight
20 Feb - 11:48:21 10° WNW 11:52:55 69° N 11:57:29 10° E daylight
20 Feb - 13:30:21 10° WNW 13:34:49 58° SSW 13:39:17 10° SE daylight
20 Feb - 15:13:23 10° W 15:16:01 15° SW 15:18:39 10° S daylight
21 Feb - 07:05:48 10° S 07:09:11 20° SE 07:12:34 10° E daylight
21 Feb - 08:45:57 10° WSW 08:50:33 70° SSE 08:55:07 10° ENE daylight
21 Feb - 10:27:58 10° W 10:32:33 66° N 10:37:06 10° E daylight
21 Feb - 12:10:04 10° WNW 12:14:40 86° NNE 12:19:13 10° ESE daylight
21 Feb - 13:52:11 10° W 13:56:17 34° SW 14:00:23 10° SSE daylight
22 Feb - 07:26:18 10° SSW 07:30:31 36° SE 07:34:44 10° E daylight
22 Feb - 09:07:34 10° WSW 09:12:12 83° NNW 09:16:48 10° ENE daylight
22 Feb - 10:49:45 10° WNW 10:54:20 67° N 10:58:52 10° E daylight
22 Feb - 12:31:45 10° WNW 12:36:18 66° SSW 12:40:48 10° ESE daylight
22 Feb - 14:14:26 10° W 14:17:36 19° SW 14:20:45 10° S daylight
23 Feb - 06:07:48 10° S 06:10:45 17° SE 06:13:41 10° E visible
23 Feb - 07:47:26 10° SW 07:52:00 61° SSE 07:56:32 10° ENE daylight
23 Feb - 09:29:20 10° W 09:33:56 69° N 09:38:30 10° ENE daylight
23 Feb - 11:11:28 10° WNW 11:16:05 79° NNE 11:20:38 10° E daylight
23 Feb - 12:53:31 10° WNW 12:57:48 40° SSW 13:02:02 10° SE daylight
24 Feb - 06:27:57 10° SSW 06:32:02 31° SE 06:36:04 10° E visible
24 Feb - 08:08:58 10° WSW 08:13:37 89° SE 08:18:14 10° ENE daylight
24 Feb - 09:51:07 10° W 09:55:43 66° N 10:00:16 10° E daylight
24 Feb - 11:33:09 10° WNW 11:37:44 75° SSW 11:42:17 10° ESE daylight
24 Feb - 13:15:36 10° W 13:19:09 22° SW 13:22:41 10° SSE daylight
25 Feb - 05:09:58 10° SSE 05:12:18 14° SE 05:14:38 10° ESE visible
25 Feb - 06:48:57 10° SW 06:53:28 52° SSE 06:57:57 10° ENE visible
25 Feb - 08:30:42 10° W 08:35:20 72° N 08:39:55 10° ENE daylight
25 Feb - 10:12:52 10° WNW 10:17:29 74° NNE 10:22:03 10° E daylight
25 Feb - 11:54:53 10° WNW 11:59:17 47° SSW 12:03:39 10° SE daylight
25 Feb - 13:38:50 10° WSW 13:40:20 11° SW 13:41:49 10° SSW daylight
26 Feb - 05:29:41 10° SSW 05:33:32 26° SE 05:37:22 10° E visible
26 Feb - 07:10:23 10° WSW 07:15:02 81° SSE 07:19:39 10° ENE daylight
26 Feb - 08:52:29 10° W 08:57:06 65° N 09:01:40 10° E daylight
26 Feb - 10:34:33 10° WNW 10:39:10 84° SSW 10:43:44 10° ESE daylight
26 Feb - 12:16:50 10° W 12:20:40 27° SW 12:24:30 10° SSE daylight
27 Feb - 04:12:37 10° SSE 04:13:52 11° SE 04:15:07 10° ESE visible
27 Feb - 05:50:29 10° SW 05:54:55 45° SSE 05:59:20 10° ENE visible
27 Feb - 07:32:03 10° W 07:36:43 76° NNW 07:41:20 10° ENE daylight
27 Feb - 09:14:15 10° WNW 09:18:52 70° N 09:23:26 10° E daylight
27 Feb - 10:56:15 10° WNW 11:00:45 55° SSW 11:05:12 10° SE daylight
27 Feb - 12:39:27 10° WSW 12:41:55 14° SW 12:44:21 10° SSW daylight
